Location: Radomski Observatory
(40.2854°N, 79.5145°W)
Time: 18:04:43
(UTC-05:00)

Daily predictions for brighter satellites

Satellite Brightness Start Highest point End
(mag) Time Altitude Azimuth Time Altitude Azimuth Time Altitude Azimuth
CSL-04 Rocket 3.7 17:18:07 10° SSE 17:23:19 62° ENE 17:28:35 10° N
Cosmos 1862 Rocket 3.9 17:21:01 10° SSE 17:25:11 44° E 17:29:26 10° NNE
Meteor 2-10 Rocket 3.9 17:28:22 10° SSW 17:33:30 71° W 17:38:55 10° N
Cosmos 1340 2.7 17:31:06 10° S 17:34:52 87° W 17:38:39 10° N
Cosmos 1725 Rocket 4.0 17:31:17 10° S 17:37:34 83° E 17:43:52 10° N
CENTAUR R/B 2.8 17:32:30 10° SW 17:38:28 73° NW 17:45:21 10° NNE
Cosmos 1346 4.4 17:37:44 10° SW 17:39:47 29° WNW 17:41:50 10° NNW
Cosmos 371 Rocket 3.6 17:35:09 10° NNW 17:39:56 71° WSW 17:44:43 10° S
Cosmos 1461 3.8 17:37:40 10° NW 17:42:17 61° WSW 17:46:57 10° SSE
Cosmos 1437 2.6 17:40:42 10° S 17:43:50 70° E 17:47:00 10° NNE
Cosmos 304 Rocket 4.1 17:40:27 10° N 17:45:02 42° ENE 17:49:34 10° SE
Cosmos 468 Rocket 3.9 17:42:21 10° NNW 17:47:33 85° ENE 17:52:41 10° SSE
Meteor 1-14 Rocket 4.4 17:42:33 10° N 17:48:06 50° ENE 17:53:29 10° SSE
Okean 1-7 4.3 17:45:28 10° SE 17:48:40 20° E 17:51:54 10° NE
ERS-2 2.8 17:46:29 10° SE 17:49:49 33° ENE 17:53:09 10° N
COSMOS 2406 3.5 17:44:05 10° NNW 17:49:49 75° WSW 17:55:30 10° SSE
ERBS 2.6 17:46:41 10° NNW 17:49:59 46° NE 17:53:17 10° ESE
IRS-1A Rocket 4.4 17:44:20 10° SSE 17:50:04 61° ENE 17:55:43 10° N
Cosmos 1844 Rocket 3.4 17:45:15 10° SW 17:50:46 54° WNW 17:56:18 10° NNE
CZ-2C R/B 3.7 17:47:26 10° NNE 17:51:54 64° ESE 17:56:23 10° S
Tsikada Rocket 4.0 17:46:57 10° N 17:53:08 87° W 17:59:18 10° S
COSMOS 2455 2.9 17:48:26 10° SSW 17:54:26 87° WNW 18:00:30 10° NNE
Cosmos 1782 Rocket 4.5 17:53:15 10° NNE 17:56:53 25° ENE 18:00:29 10° SE
Timation 1 Rocket 4.3 17:52:44 10° SSW 17:58:43 82° ESE 18:04:45 10° NNE
COSMO-SKYMED 1 2.9 17:57:18 10° NNE 18:01:27 42° E 18:05:34 10° S
YAOGAN 1 2.5 17:58:14 10° SSE 18:02:30 63° ENE 18:06:47 10° N
BREEZE-M R/B 3.0 18:02:25 10° NW 18:05:01 39° NNE 18:07:11 20° E
CZ-4 R/B 1.4 18:02:39 10° S 18:06:32 78° WSW 18:10:24 10° NNW
Cosmos 1763 Rocket 3.4 18:04:09 10° NNW 18:09:24 78° ENE 18:14:31 10° SSE
Meteor 1-26 Rocket 4.3 18:04:13 10° SSW 18:09:48 80° W 18:15:23 10° N
Cosmos 2221 Rocket 4.3 18:06:24 10° SSE 18:10:17 31° E 18:13:08 16° NE
USA 116 4.0 18:05:51 10° N 18:10:28 81° WNW 18:14:29 10° SSW
Centaur D AC-28 4.2 18:07:08 10° SW 18:11:22 30° SSE 18:21:43 13° E
FENGYUN 3A 4.0 18:08:26 10° SE 18:13:29 41° ENE 18:18:32 10° N
Cosmos 2297 4.3 18:10:29 10° S 18:15:37 36° ESE 18:18:48 20° NE
MOS 1 4.2 18:10:53 10° SSE 18:16:32 66° ENE 18:22:11 10° N
ALOS 2.6 18:12:39 10° SE 18:17:02 42° ENE 18:21:27 10° N
Cosmos 1814 Rocket 4.2 18:12:58 10° NNW 18:18:20 79° WSW 18:23:40 10° SSE
Cosmos 1833 Rocket 3.2 18:14:00 10° N 18:19:10 36° ENE 18:23:09 16° ESE
Cosmos 2278 Rocket 2.3 18:16:50 10° SSW 18:22:31 82° WNW 18:28:14 10° NNE
Cosmos 1503 Rocket 4.3 18:18:43 10° S 18:23:44 45° ESE 18:26:49 22° NE
SL-27 R/B 2.4 18:20:41 10° N 18:23:56 47° ENE 18:25:00 33° ESE
Cosmos 1703 Rocket 3.5 18:19:56 10° S 18:24:23 75° E 18:28:52 10° N
Centaur D AC-29 3.9 18:22:02 10° WSW 18:25:35 14° SW 18:27:56 10° S
Cosmos 1633 2.4 18:27:46 10° N 18:31:26 67° E 18:35:04 10° SSE
Cosmos 1464 Rocket 3.9 18:25:51 10° S 18:31:49 59° E 18:37:50 10° NNE
Okean 2 Rocket 3.5 18:28:45 10° N 18:33:02 40° ENE 18:37:18 10° SSE
DMSP B5D1-3 4.5 18:31:23 10° NNE 18:36:31 62° ESE 18:41:36 10° S
USA 234 3.2 18:36:48 23° NE 18:41:13 87° NW 18:47:46 10° SW
Cosmos 540 Rocket 3.4 18:36:41 10° N 18:41:49 58° ENE 18:46:03 15° SE
Cosmos 1606 2.8 18:38:41 10° SSW 18:42:28 74° W 18:45:11 18° N
Cosmos 841 Rocket 3.8 18:37:48 10° NNW 18:43:04 71° WSW 18:48:17 10° S
EO 1 Del DPAF 3.8 18:41:40 11° N 18:45:19 56° WNW 18:49:04 10° SSW
SKYMED 2 4.3 18:45:15 10° N 18:49:30 54° WNW 18:53:43 10° SSW
Meteor 2-6 Rocket 4.0 18:44:07 10° S 18:49:31 78° E 18:55:04 10° NNE
Cosmos 1782 3.2 18:46:19 10° SSW 18:50:17 62° W 18:53:34 15° N
Atlas 2A Centaur Rocket 4.4 18:36:36 10° WSW 18:50:27 29° SSW 18:53:42 17° SSE
SPOT 3 Rocket 3.8 18:49:34 10° S 18:54:46 70° WSW 19:00:00 10° NNW
BREEZE-M DEB (TANK) 3.6 18:55:19 10° WSW 18:56:41 34° WNW 18:56:41 34° WNW
Cosmos 1354 Rocket 4.0 18:55:42 10° SSW 19:01:00 83° WNW 19:03:32 32° NNE
CZ-4C R/B 3.3 18:55:09 10° NNW 19:01:46 39° NE 19:02:17 39° NE
Lacrosse 5 4.1 18:59:49 10° NW 19:01:58 12° N 19:03:04 12° N
Cosmos 2082 Rocket 2.0 18:57:20 10° NNW 19:03:04 80° ENE 19:05:55 31° SSE
NOAA 12 4.4 18:59:09 10° S 19:04:26 67° WSW 19:09:45 10° NNW
FengYun 1-2 T 4.1 19:03:36 29° SSE 19:06:25 68° ENE 19:11:57 10° N
Cosmos 405 Rocket 4.0 19:07:52 10° SSW 19:10:02 32° SSW 19:10:02 32° SSW
Cosmos 44 Rocket 4.3 19:07:29 10° NNW 19:10:23 33° N 19:10:23 33° N
Meteor 1-27 Rocket 3.7 19:07:31 10° S 19:13:23 80° E 19:15:39 40° NNE
Meteor 2-20 Rocket 4.3 19:11:38 10° N 19:25:48 - SSE 19:17:33 68° ENE
Thor Agena Rocket 3.8 19:30:42 63° SW 19:30:42 63° SW 19:35:03 10° SSW
Nadezhda 4 Rocket 4.2 19:42:47 10° NNW 19:48:51 65° W 19:54:52 10° S
Meteor 1-11 Rocket 4.4 19:45:34 10° NNW 19:51:15 53° W 19:53:04 38° SW
Cosmos 1833 Rocket 4.3 19:58:05 10° NW 20:02:58 31° WSW 20:05:02 24° SW
CZ-4C R/B 4.2 20:43:31 10° NW 20:47:31 34° WNW 20:47:31 34° WNW
